Wind_Speed
26 27 27 27 27 27 28 28 29 29 30 31 31 31 31 32 33 33 33 33 33 34 35 36 37 38 38 38 39 40 41 41 42 42 42 43 43 44 45 46 46 46 46 46
28 28 28 28 28 28 29 30 30 30 32 32 32 32 32 33 33 33 33 34 34 35 35 36 36 37 38 39 39 40 41 42 43 43 43 43 44 45 46 47 47 48 48 48
28 28 28 28 28 29 30 30 30 32 32 33 33 32 31 32 32 33 33 34 34 35 35 36 36 37 38 39 39 40 41 42 43 44 44 45 45 45 46 47 47 48 48 49
28 28 28 29 29 30 30 30 31 32 33 33 33 33 31 32 32 33 34 34 35 35 35 35 36 37 38 39 39 40 42 42 43 44 45 46 46 46 47 47 48 48 49 49
28 28 28 29 30 30 30 30 31 32 32 34 34 35 33 33 33 32 33 34 35 35 35 36 37 38 38 39 41 41 41 42 43 44 45 46 46 46 46 47 48 49 49 50
30 30 30 30 30 30 30 30 31 32 32 34 33 35 35 33 33 33 33 34 35 35 36 37 38 38 38 39 40 41 41 42 44 44 45 45 46 46 47 48 48 49 49 50
29 29 29 29 30 30 30 30 31 33 33 34 33 35 35 34 33 33 34 34 36 36 36 38 38 37 37 38 39 41 42 43 44 44 45 45 45 46 46 46 47 48 49 50
29 28 28 29 29 29 29 30 31 33 35 35 34 34 34 34 34 34 34 34 35 36 36 37 37 37 38 38 39 41 42 43 43 44 45 45 45 46 46 46 47 47 48 49
30 30 29 29 29 29 30 31 31 34 35 36 35 34 33 32 34 35 35 35 35 36 36 37 38 38 39 39 39 40 41 42 43 44 45 46 47 47 47 47 47 47 47 48
29 30 30 31 31 31 31 31 31 32 35 36 36 34 33 32 32 33 34 35 36 36 37 38 38 39 40 40 40 41 42 42 43 43 44 46 47 48 48 48 48 47 47 47
29 30 30 30 30 30 30 31 32 33 34 35 36 34 33 32 32 32 31 32 34 35 36 37 38 39 40 41 41 42 42 43 44 44 45 45 47 47 48 48 49 49 49 49
29 30 30 30 30 29 30 31 32 33 33 34 35 34 32 32 32 31 31 31 32 33 35 36 37 39 40 41 42 43 43 44 45 46 46 46 47 48 49 50 50 50 50 51
30 30 31 30 29 29 30 30 31 32 33 34 35 33 32 32 32 32 32 32 33 33 34 35 37 38 39 41 42 43 44 45 46 47 47 48 48 49 50 51 51 51 51 52
30 29 29 29 29 29 29 29 30 32 33 34 34 33 31 32 32 32 33 33 33 33 34 35 36 38 39 40 42 43 44 46 47 47 48 48 49 49 49 50 51 52 52 53
29 29 29 28 29 30 30 30 31 32 32 34 33 33 32 32 33 34 34 34 34 34 35 36 38 39 40 41 43 44 45 45 47 47 48 48 49 49 50 50 51 52 53 53
29 30 30 30 29 31 32 31 32 33 33 34 34 33 32 32 34 34 34 34 35 36 37 37 39 40 41 41 42 43 44 45 46 47 48 48 49 50 50 51 51 52 53 54
30 31 31 31 31 33 33 32 32 33 33 34 34 33 32 32 32 33 34 35 35 36 37 38 39 40 41 41 42 43 44 45 45 46 47 48 49 50 50 51 51 52 54 55
30 30 31 32 32 34 33 31 32 32 33 34 34 33 33 33 33 34 34 35 36 37 38 39 40 41 42 42 42 43 43 44 45 46 47 48 49 50 50 51 52 53 53 55
30 31 31 32 34 35 33 32 33 34 33 33 34 33 34 34 35 35 35 36 37 38 39 40 41 42 42 42 43 43 44 44 45 46 46 47 48 49 50 50 52 53 54 55
30 31 32 33 34 35 34 33 34 36 36 35 35 35 36 36 36 36 36 37 38 39 40 40 41 42 42 43 43 44 44 45 45 46 46 47 47 48 49 51 52 53 53 54
30 31 32 34 35 36 36 36 37 38 38 37 37 37 37 37 38 38 38 38 39 40 40 41 41 42 42 43 43 44 44 45 46 46 46 47 47 48 49 50 51 52 52 53
32 33 34 35 37 37 36 37 38 38 38 38 38 38 38 38 38 39 39 39 40 41 41 41 42 42 42 43 43 44 44 45 46 46 46 47 48 48 49 50 51 52 52 52
33 34 35 37 37 37 38 38 39 39 38 38 38 38 39 39 39 39 39 40 40 41 41 40 41 41 41 42 43 44 44 45 45 46 46 47 48 48 49 50 50 51 52 52
34 34 36 36 37 37 39 39 39 38 39 39 39 38 38 39 39 39 39 40 40 40 41 41 40 41 41 42 43 43 44 45 46 46 46 47 47 48 49 50 50 50 50 50
35 36 36 37 37 38 38 38 39 39 39 39 39 39 40 40 40 40 40 41 41 41 41 41 41 41 41 42 43 44 45 45 46 46 47 48 48 49 49 49 49 49 49 49
34 35 37 37 38 38 38 38 38 38 38 39 39 40 40 41 41 41 41 41 42 42 42 42 42 42 42 43 44 44 45 45 46 46 47 48 48 48 49 49 48 49 49 49
Wind_Direction
282 280 280 282 281 279 276 275 273 273 272 271 270 268 267 267 266 264 262 262 262 259 257 256 255 254 253 252 252 252 252 252 252 253 254 255 255 256 255 256 257 257 257 257
281 280 281 281 280 279 278 277 275 274 273 272 270 269 268 267 266 266 265 264 263 261 259 258 256 254 253 252 252 253 253 253 254 255 255 256 257 257 257 257 258 258 258 258
282 282 281 281 281 280 279 278 277 275 274 272 271 268 268 268 268 267 266 265 263 262 260 257 255 253 253 254 254 253 253 254 255 255 256 258 258 259 259 259 260 259 260 260
282 282 282 282 282 282 280 279 278 277 276 274 272 271 267 268 268 268 267 265 263 262 260 257 255 254 254 254 255 254 254 255 256 257 258 259 260 260 261 261 261 261 261 260
283 282 281 281 282 281 281 280 279 279 278 276 275 274 271 269 269 268 266 264 263 261 259 257 256 256 255 256 256 256 256 256 257 258 259 260 260 260 261 262 262 262 261 260
283 282 282 282 282 281 280 280 279 279 280 278 277 277 275 273 270 268 266 265 264 262 260 257 257 258 257 258 258 259 259 258 259 260 260 261 261 261 262 262 261 261 260 260
283 283 283 283 282 280 279 280 281 281 281 282 281 279 277 276 274 271 268 267 265 263 261 259 259 259 260 260 260 260 260 260 260 260 260 260 261 261 261 261 262 262 261 261
285 283 284 284 284 282 280 281 283 285 285 285 283 281 279 277 275 273 270 268 267 264 261 261 260 260 261 262 262 262 261 261 261 261 261 261 260 260 260 261 261 261 261 261
287 284 283 284 284 283 281 282 283 285 285 284 283 283 281 278 277 275 273 271 269 267 266 264 263 264 263 263 263 263 262 262 262 262 262 261 261 261 262 262 262 263 262 261
289 287 284 283 283 282 283 284 284 284 285 285 284 282 282 281 279 277 276 273 270 269 268 267 267 266 265 264 264 264 264 263 263 263 263 263 262 262 261 262 262 262 262 262
287 288 288 287 285 285 284 283 283 284 283 284 285 285 284 283 282 281 279 275 273 270 268 268 268 268 267 266 266 265 265 265 265 265 265 264 263 262 262 262 262 263 262 262
289 289 289 290 288 286 284 283 283 283 284 284 285 286 286 285 283 282 280 277 275 272 271 270 270 270 269 268 267 266 266 266 266 265 265 265 265 264 263 263 263 264 264 263
289 289 290 289 288 287 286 285 284 283 283 284 285 288 288 286 284 282 280 279 277 275 274 272 272 271 270 269 268 268 268 267 267 266 266 266 265 265 265 264 264 264 264 263
287 287 287 288 288 289 288 287 286 285 283 283 285 287 287 287 285 282 280 280 278 277 277 275 274 272 271 270 269 270 269 269 268 268 267 268 267 266 266 266 265 264 264 264
285 286 286 285 287 288 288 287 287 286 285 284 287 288 288 285 283 281 280 279 277 276 276 276 276 274 273 272 271 271 271 270 269 268 268 268 267 267 267 267 266 265 264 265
285 286 285 285 287 288 288 287 287 287 288 287 287 288 289 285 282 281 280 278 277 276 276 277 278 276 275 274 273 272 272 272 271 270 268 268 268 267 267 267 267 266 266 266
286 286 285 285 287 287 288 290 290 289 289 289 289 290 288 285 284 282 280 279 279 278 278 278 279 278 277 276 275 274 274 274 272 271 270 270 269 269 268 268 268 268 268 267
286 287 287 288 287 288 292 292 291 291 290 291 291 289 287 285 284 282 281 280 280 280 280 281 280 279 278 277 277 277 276 276 275 274 273 272 272 271 270 269 269 269 269 269
287 288 287 288 289 290 292 293 293 293 291 291 290 289 288 286 284 282 281 282 282 282 282 282 282 281 279 278 277 277 277 277 277 276 275 274 273 272 271 270 270 270 270 270
289 290 289 289 290 291 294 295 294 293 291 291 291 290 289 288 286 284 283 282 281 282 282 282 282 282 280 279 279 279 279 278 278 278 277 275 274 273 272 272 272 272 271 271
291 291 290 289 290 292 295 296 294 293 294 293 291 291 290 288 287 286 284 283 282 282 282 283 283 283 282 281 280 280 280 279 279 279 278 277 276 275 275 274 273 273 272 272
292 291 289 289 290 293 295 295 293 293 292 291 291 290 289 288 288 287 286 285 285 284 284 284 284 284 283 282 281 280 280 280 280 279 278 277 277 277 276 276 275 274 274 273
291 292 291 289 291 293 293 292 292 291 291 291 290 289 289 288 287 287 286 285 285 286 286 286 285 285 283 282 281 281 281 281 281 280 279 278 278 277 277 277 276 276 275 274
290 292 291 291 291 291 291 292 291 290 291 290 290 290 290 289 288 286 286 286 286 286 286 286 285 285 284 283 282 282 282 282 281 280 280 279 278 278 278 278 277 277 275 274
290 291 291 291 291 291 291 291 290 290 291 291 291 291 291 289 289 288 287 288 287 287 287 287 286 285 284 283 283 283 283 283 282 280 280 280 279 279 279 278 277 276 275 274
292 292 291 292 292 292 291 291 292 291 292 292 291 291 290 290 290 289 288 288 288 288 288 288 287 285 284 283 284 284 284 283 283 281 280 280 280 280 279 279 277 276 276 275
Height
5720 5719 5718 5717 5715 5714 5712 5710 5710 5709 5707 5706 5706 5706 5707 5706 5706 5706 5707 5707 5708 5708 5709 5709 5710 5712 5713 5714 5716 5717 5719 5720 5721 5723 5724 5726 5727 5727 5728 5729 5729 5730 5731 5732
5713 5711 5711 5708 5706 5705 5704 5702 5702 5701 5699 5698 5697 5698 5698 5697 5698 5698 5698 5698 5698 5698 5699 5700 5700 5701 5703 5704 5705 5707 5708 5710 5711 5712 5713 5715 5715 5716 5717 5717 5718 5718 5719 5720
5704 5704 5702 5700 5699 5697 5696 5695 5693 5692 5690 5689 5688 5689 5690 5689 5689 5689 5689 5688 5688 5688 5689 5689 5690 5691 5692 5693 5695 5696 5697 5699 5700 5701 5702 5703 5703 5704 5705 5706 5706 5706 5706 5707
5696 5696 5694 5692 5691 5689 5688 5687 5685 5683 5681 5680 5680 5678 5681 5680 5680 5680 5680 5679 5678 5678 5679 5679 5679 5680 5681 5682 5683 5685 5686 5687 5688 5689 5690 5691 5691 5692 5693 5693 5693 5694 5694 5694
5688 5688 5686 5684 5683 5681 5679 5678 5676 5674 5672 5671 5670 5669 5672 5670 5670 5670 5670 5669 5668 5668 5668 5668 5669 5670 5671 5671 5672 5673 5674 5676 5676 5677 5678 5679 5679 5680 5680 5680 5681 5681 5682 5682
5680 5679 5677 5676 5674 5672 5671 5670 5667 5665 5663 5662 5662 5659 5660 5661 5660 5660 5659 5659 5658 5658 5658 5658 5659 5659 5660 5661 5661 5662 5663 5664 5664 5665 5666 5666 5667 5667 5667 5668 5668 5669 5669 5669
5672 5670 5669 5667 5666 5664 5663 5661 5659 5656 5654 5653 5652 5649 5651 5651 5650 5649 5648 5648 5647 5647 5648 5648 5649 5649 5650 5650 5650 5651 5651 5652 5652 5653 5653 5654 5654 5654 5655 5655 5655 5656 5656 5657
5663 5662 5661 5659 5657 5655 5654 5652 5651 5648 5645 5644 5642 5640 5642 5641 5639 5638 5637 5637 5636 5636 5637 5637 5638 5638 5639 5639 5639 5640 5640 5640 5640 5641 5641 5641 5641 5641 5642 5642 5642 5643 5643 5644
5654 5653 5652 5650 5648 5647 5645 5643 5642 5638 5635 5633 5632 5631 5632 5631 5629 5628 5627 5626 5626 5626 5626 5626 5627 5627 5628 5628 5628 5628 5628 5628 5628 5628 5628 5628 5628 5629 5629 5629 5629 5629 5630 5630
5646 5644 5643 5641 5639 5638 5636 5634 5632 5629 5625 5623 5622 5622 5622 5621 5619 5618 5616 5615 5615 5615 5615 5615 5616 5616 5616 5617 5617 5616 5616 5616 5616 5616 5616 5616 5616 5616 5616 5616 5616 5616 5617 5617
5638 5636 5634 5632 5631 5629 5628 5626 5623 5620 5617 5615 5612 5615 5614 5612 5610 5608 5606 5605 5604 5604 5604 5604 5604 5604 5604 5605 5605 5604 5604 5604 5604 5604 5603 5603 5603 5603 5603 5603 5603 5603 5603 5604
5629 5627 5625 5624 5622 5620 5618 5616 5614 5612 5609 5606 5603 5607 5604 5602 5600 5598 5597 5595 5594 5593 5593 5592 5592 5592 5592 5592 5592 5592 5592 5591 5591 5591 5590 5590 5590 5590 5589 5590 5590 5590 5590 5590
5620 5618 5616 5614 5614 5612 5609 5607 5605 5602 5600 5596 5594 5598 5594 5592 5590 5589 5587 5585 5584 5583 5582 5581 5580 5580 5580 5579 5579 5579 5578 5578 5578 5577 5577 5577 5576 5576 5576 5575 5575 5575 5575 5576
5611 5609 5608 5607 5604 5601 5599 5598 5595 5592 5589 5587 5586 5587 5586 5583 5580 5579 5577 5575 5573 5573 5571 5570 5569 5568 5567 5567 5566 5565 5565 5564 5564 5563 5563 5563 5562 5562 5561 5561 5561 5561 5561 5561
5602 5600 5599 5597 5595 5592 5590 5588 5585 5582 5580 5578 5578 5576 5576 5573 5570 5568 5566 5564 5563 5562 5561 5559 5558 5557 5555 5554 5553 5552 5551 5550 5550 5549 5549 5548 5548 5547 5547 5546 5546 5546 5546 5546
5593 5591 5590 5588 5586 5583 5580 5579 5576 5574 5571 5569 5567 5566 5566 5562 5559 5557 5555 5553 5552 5551 5550 5548 5546 5545 5543 5542 5540 5539 5538 5537 5536 5535 5534 5533 5533 5532 5532 5531 5531 5531 5531 5530
5584 5582 5580 5578 5576 5572 5571 5571 5568 5565 5563 5560 5557 5557 5555 5552 5549 5547 5545 5543 5541 5540 5538 5536 5535 5533 5531 5529 5528 5526 5525 5523 5522 5520 5519 5518 5517 5517 5516 5516 5515 5515 5515 5515
5576 5573 5570 5568 5566 5562 5565 5562 5558 5555 5553 5550 5548 5546 5544 5541 5539 5537 5534 5532 5530 5529 5527 5525 5523 5521 5519 5517 5515 5513 5511 5510 5508 5507 5505 5504 5502 5501 5501 5500 5500 5499 5499 5498
5567 5564 5560 5558 5554 5553 5554 5552 5548 5545 5543 5541 5538 5535 5533 5531 5528 5526 5524 5521 5519 5517 5515 5513 5511 5509 5506 5504 5502 5500 5498 5497 5495 5493 5491 5489 5487 5486 5485 5485 5484 5483 5482 5482
5558 5555 5552 5549 5545 5543 5545 5542 5537 5535 5532 5531 5527 5525 5522 5519 5517 5516 5513 5510 5508 5505 5503 5501 5498 5496 5494 5491 5489 5487 5485 5483 5481 5479 5477 5475 5473 5471 5470 5469 5468 5467 5466 5465
5549 5546 5543 5539 5535 5534 5534 5530 5527 5525 5523 5520 5516 5513 5511 5508 5506 5504 5501 5498 5496 5493 5491 5488 5486 5483 5481 5478 5476 5474 5472 5469 5467 5465 5463 5461 5459 5457 5455 5454 5452 5451 5450 5448
5539 5536 5533 5530 5526 5527 5523 5519 5517 5514 5510 5508 5505 5502 5499 5497 5494 5491 5488 5486 5483 5481 5478 5476 5473 5470 5468 5465 5463 5460 5458 5456 5453 5451 5448 5446 5444 5442 5440 5438 5436 5434 5433 5431
5529 5527 5523 5521 5520 5516 5512 5508 5505 5502 5499 5496 5493 5491 5488 5485 5482 5479 5477 5474 5471 5468 5466 5463 5460 5457 5454 5451 5449 5447 5444 5441 5439 5436 5434 5431 5429 5426 5424 5422 5420 5418 5416 5414
5519 5516 5513 5510 5508 5504 5500 5497 5493 5491 5488 5484 5482 5479 5476 5473 5470 5467 5464 5461 5459 5456 5453 5450 5447 5444 5441 5438 5435 5433 5430 5427 5424 5422 5419 5416 5414 5411 5409 5406 5404 5401 5399 5398
5508 5505 5502 5499 5497 5493 5489 5485 5482 5479 5476 5473 5470 5467 5463 5460 5458 5455 5452 5449 5446 5443 5440 5437 5434 5431 5428 5425 5422 5419 5415 5412 5409 5407 5404 5401 5398 5396 5393 5390 5388 5386 5384 5382
5499 5495 5491 5488 5485 5482 5478 5474 5471 5467 5464 5461 5458 5455 5451 5448 5445 5442 5439 5436 5432 5429 5426 5423 5420 5417 5414 5411 5408 5404 5401 5398 5395 5392 5389 5386 5383 5380 5377 5375 5372 5369 5367 5366